Location: Krasnoyarskiy Pitomnik
(51.1333°N, 71.6167°E)
Time: 20:43:14
(UTC+00:00)

Transit 2A Rocket - Visible Passes

Search period start: 12 April 2024 00:00
Search period end: 22 April 2024 00:00
Orbit: 587 x 907 km, 66.7° (Epoch: 11 April)

Date Brightness Start Highest point End Pass type
(mag) Time Alt. Az. Time Alt. Az. Time Alt. Az.
12 Apr 5.9 15:58:27 10° NNW 16:03:31 41° NE 16:06:31 23° E visible
12 Apr 5.5 17:40:54 10° NW 17:46:12 52° WSW 17:46:20 52° SW visible
13 Apr 6.3 15:14:38 10° NNW 15:19:19 30° NE 15:23:52 12° E visible
13 Apr 5.1 16:56:53 10° NW 17:02:21 80° SW 17:03:41 54° SSE visible
13 Apr 7.2 18:40:41 10° WNW 18:43:29 17° W 18:43:29 17° W visible
14 Apr 5.2 16:12:58 10° NW 16:18:24 70° NE 16:21:03 33° SE visible
14 Apr 6.5 17:55:59 10° WNW 18:00:35 27° WSW 18:00:52 27° WSW visible
15 Apr 5.7 15:29:07 10° NNW 15:34:20 48° NE 15:38:28 18° ESE visible
15 Apr 5.9 17:11:42 10° NW 17:16:53 42° WSW 17:18:17 36° SSW visible
16 Apr 6.1 14:45:17 10° NNW 14:50:11 35° NE 14:55:27 10° ESE visible
16 Apr 5.4 16:27:37 10° NW 16:33:04 65° WSW 16:35:44 32° SSE visible
16 Apr 7.4 18:12:07 10° WNW 18:14:43 13° WSW 18:15:34 13° WSW visible
17 Apr 5.2 15:43:39 10° NW 15:49:10 84° NE 15:53:14 21° SE visible
17 Apr 6.9 17:26:58 10° WNW 17:31:10 22° WSW 17:33:03 19° SW visible
18 Apr 5.5 14:59:46 10° NNW 15:05:08 58° NE 15:10:46 11° SE visible
18 Apr 6.4 16:42:31 10° NW 16:47:30 34° WSW 16:50:36 21° SSW visible
19 Apr 5.8 15:58:21 10° NW 16:03:44 53° WSW 16:08:11 17° S visible
19 Apr 7.7 17:44:38 10° W 17:45:12 10° WSW 17:45:47 10° WSW visible
20 Apr 5.3 15:14:20 10° NW 15:19:52 81° SW 15:25:47 10° SSE visible
20 Apr 7.3 16:58:05 10° WNW 17:01:42 18° WSW 17:05:27 10° SSW visible
21 Apr 6.8 16:13:24 10° NW 16:18:05 28° WSW 16:23:01 10° SSW visible
